Weather History for Erie, PA

Change the Weather History Date:

Wednesday, May 7, 2014

  Actual Average Record
Temperature  
Mean Temperature 55 °F 54 °F  
Max Temperature 67 °F 64 °F 84 °F (1930)
Min Temperature 43 °F 45 °F 26 °F (1970)
Degree Days  
Heating Degree Days 10 11  
Month to date heating degree days 108 84  
Since 1 July heating degree days 6598 5903  
Cooling Degree Days 0 1  
Month to date cooling degree days 0 2  
Year to date cooling degree days 0 9  
Growing Degree Days 4 (Base 50)    
Moisture  
Dew Point 37 °F    
Average Humidity 59    
Maximum Humidity 77    
Minimum Humidity 40    
Precipitation  
Precipitation 0.10 in 0.11 in 1.09 in (1967)
Month to date precipitation 0.30 0.74  
Year to date precipitation 13.20 12.36  
Snow  
Snow 0.00 in 0.00 in - ()
Month to date snowfall 0.0 0.0  
Since 1 July snowfall 138.4 100.9  
Snow Depth 0.00 in    
Sea Level Pressure  
Sea Level Pressure 30.09 in    
Wind  
Wind Speed 6 mph (East)    
Max Wind Speed 17 mph    
Max Gust Speed 26 mph    
Visibility 10 miles    
Events Rain    
T = Trace of Precipitation, MM = Missing Value Source: NWS Daily Summary

Daily Weather History Graph

Daily Weather History Graph

Search for Another Location

Airport:

Trip Planner

Search our weather history database for the weather conditions in past years. The results will help you decide how hot, cold, wet, or windy it might be!

Date:

Astronomy

May. 07, 2014 Rise Set
Actual Time 6:08 AM EDT 8:26 PM EDT
Civil Twilight 5:37 AM EDT 8:57 PM EDT
Nautical Twilight 4:59 AM EDT 9:36 PM EDT
Astronomical Twilight 4:16 AM EDT 10:18 PM EDT
Moon 1:22 PM EDT (5/7) 2:14 AM EDT (5/7)
Length of Visible Light 15h 19m
Length of Day
14h 17m
First Quarter, 55% of the Moon is Illuminated
May 7
First Quarter
May 14
Full
May 21
Last Quarter
May 28
New
Jun 5
First Quarter

Hourly Weather History & Observations

Time (EDT) Temp. Windchill Dew Point Humidity Pressure Visibility Wind Dir Wind Speed Gust Speed Precip Events Conditions
12:51 AM 44.6 °F - 37.4 °F 76% 30.10 in 10.0 mi Calm Calm - N/A   Clear
1:51 AM 45.0 °F 42.6 °F 35.1 °F 68% 30.10 in 10.0 mi East 4.6 mph - N/A   Clear
2:51 AM 48.0 °F - 30.9 °F 52% 30.07 in 10.0 mi East 5.8 mph - N/A   Clear
3:51 AM 46.9 °F - 30.9 °F 54% 30.10 in 10.0 mi NE 4.6 mph - N/A   Clear
4:51 AM 46.0 °F 43.1 °F 33.1 °F 61% 30.09 in 10.0 mi ENE 5.8 mph - N/A   Clear
5:51 AM 46.9 °F - 30.9 °F 54% 30.08 in 10.0 mi East 8.1 mph - N/A   Clear
6:51 AM 48.9 °F - 32.0 °F 52% 30.12 in 10.0 mi NE 5.8 mph - N/A   Clear
7:51 AM 51.1 °F - 32.0 °F 48% 30.14 in 10.0 mi ESE 4.6 mph - N/A   Clear
8:51 AM 53.1 °F - 32.0 °F 45% 30.14 in 10.0 mi East 6.9 mph - N/A   Clear
9:51 AM 55.0 °F - 32.0 °F 42% 30.14 in 10.0 mi Variable 3.5 mph - N/A   Clear
10:51 AM 55.0 °F - 37.0 °F 51% 30.17 in 10.0 mi Calm Calm - N/A   Mostly Cloudy
11:51 AM 55.9 °F - 37.9 °F 51% 30.15 in 10.0 mi Calm Calm - 0.01 in Rain Light Rain
12:51 PM 51.1 °F - 44.1 °F 77% 30.12 in 10.0 mi East 10.4 mph - 0.00 in Rain Light Rain
1:51 PM 61.0 °F - 37.9 °F 42% 30.09 in 10.0 mi SE 10.4 mph - 0.00 in   Mostly Cloudy
2:51 PM 63.0 °F - 39.0 °F 41% 30.06 in 10.0 mi SSE 10.4 mph - N/A   Overcast
3:51 PM 64.9 °F - 39.9 °F 40% 30.05 in 10.0 mi East 5.8 mph - 0.00 in   Scattered Clouds
4:51 PM 66.2 °F - 42.8 °F 43% 30.05 in 10.0 mi ESE 4.6 mph 16.1 mph N/A   Clear
5:51 PM 64.9 °F - 43.0 °F 45% 30.05 in 10.0 mi NNE 5.8 mph - N/A   Clear
6:51 PM 59.0 °F - 42.1 °F 53% 30.04 in 10.0 mi ENE 6.9 mph - N/A   Clear
7:51 PM 57.0 °F - 42.1 °F 57% 30.06 in 10.0 mi NE 5.8 mph - N/A   Partly Cloudy
8:51 PM 55.9 °F - 41.0 °F 57% 30.05 in 10.0 mi East 4.6 mph - N/A   Mostly Cloudy
9:51 PM 50.0 °F - 39.9 °F 68% 30.06 in 10.0 mi NNE 4.6 mph - N/A   Mostly Cloudy
10:51 PM 51.1 °F - 44.1 °F 77% 30.04 in 6.0 mi SE 8.1 mph - 0.01 in Rain Light Rain
11:51 PM 59.0 °F - 45.0 °F 60% 30.00 in 10.0 mi SE 17.3 mph 26.5 mph 0.00 in Rain Light Rain